Theta_e
339 345 349 352 351 351 350 351 350 348 347 344 343 342 342 341 341 340 341 341 342 343 343 345 343 345 345 343 342 341 340 339 338 338 338 339 340 341 342 341 343 343 347
343 346 347 350 352 352 350 351 350 348 347 344 343 341 340 340 340 339 339 339 341 341 344 344 342 345 344 342 340 339 339 337 336 336 335 337 338 338 339 338 341 340 344
344 347 347 348 352 352 351 351 350 348 346 343 342 340 339 339 339 338 337 337 339 340 341 342 343 343 342 340 339 338 336 334 333 333 333 333 333 336 336 336 336 337 339
345 347 348 346 351 351 351 350 349 348 345 343 342 340 339 338 337 335 335 334 335 337 340 340 342 342 339 338 336 334 333 332 331 330 329 330 330 335 335 334 335 335 335
345 347 347 347 351 352 350 349 349 348 346 343 342 340 338 336 334 332 331 330 331 333 337 339 340 340 337 335 333 331 331 330 328 328 329 330 331 333 335 334 333 333 334
345 346 345 347 350 351 350 348 348 348 348 344 342 340 339 338 335 331 328 328 328 330 334 334 336 336 332 329 328 328 328 326 325 326 328 330 330 334 334 333 333 333 334
344 346 346 345 347 348 349 348 347 347 347 344 342 340 339 338 337 335 328 326 326 327 329 330 331 329 325 323 323 324 323 322 321 324 327 329 330 333 333 333 332 332 332
344 344 345 339 342 344 346 347 347 346 346 344 342 340 339 337 336 335 330 326 325 326 326 326 326 325 322 320 320 321 320 317 318 321 325 328 332 334 333 334 332 331 331
343 343 343 344 341 337 340 342 343 344 344 343 342 342 340 337 337 335 333 329 326 324 323 323 322 321 319 318 318 319 318 317 318 320 322 326 330 331 334 334 335 334 334
339 340 341 342 342 343 343 334 337 339 340 340 339 336 334 333 333 332 330 330 327 324 322 321 320 319 317 316 316 316 314 317 320 322 324 325 328 328 328 329 330 330 330
324 332 337 340 341 341 341 336 332 334 336 335 334 330 329 333 332 331 328 329 327 324 321 319 318 317 315 314 314 313 314 316 319 322 325 327 329 329 328 327 326 327 327
319 319 326 333 336 339 339 339 339 338 342 340 338 334 335 332 333 328 324 324 325 323 321 320 317 313 309 308 309 311 312 314 316 318 318 325 326 328 328 328 328 328 327
317 316 318 318 320 326 334 340 339 339 340 338 335 334 333 330 329 325 324 321 319 315 315 314 313 311 309 308 308 309 310 311 311 311 314 321 322 325 326 326 326 327 326
312 314 313 316 316 318 322 333 341 338 337 337 334 333 331 329 327 323 322 320 317 316 314 315 313 311 308 306 306 305 305 306 306 306 310 314 317 320 322 322 322 322 321
310 311 312 312 315 316 317 327 333 337 338 338 333 333 331 328 325 324 320 318 316 314 313 313 312 310 306 303 301 300 299 299 299 300 304 308 310 314 317 319 320 320 319
307 308 310 311 313 315 316 326 330 332 331 333 332 332 329 328 325 322 318 317 314 313 312 312 310 306 303 300 297 296 294 293 293 293 295 300 305 309 313 316 317 317 316
304 306 307 310 314 314 315 325 326 327 327 327 329 328 328 328 323 320 317 316 316 312 309 308 307 303 300 296 294 293 291 291 290 290 291 292 296 304 307 310 310 311 312
303 304 306 311 314 315 317 322 322 320 321 321 322 327 326 324 322 318 316 315 312 309 307 306 304 301 298 293 290 290 290 290 289 289 290 290 291 294 300 302 303 306 308
302 304 305 311 313 314 315 316 317 315 316 317 317 319 321 321 319 317 314 310 307 304 304 302 301 299 293 290 288 288 288 288 288 288 288 288 289 289 289 294 297 298 302
301 303 306 309 311 311 310 309 307 308 307 311 312 312 315 315 314 313 308 304 302 300 299 299 298 296 292 289 286 286 286 287 287 287 287 287 287 287 287 286 287 290 296
300 301 304 308 309 308 308 307 305 305 303 302 304 304 305 308 308 308 303 298 299 300 299 298 297 292 289 289 288 286 286 286 285 286 286 287 286 286 286 285 285 286 286
299 301 303 307 307 307 310 306 303 302 298 298 297 299 301 300 303 303 300 295 296 296 297 298 295 291 290 291 291 291 287 288 285 284 285 285 285 286 285 284 283 283 284
298 300 303 307 306 307 306 298 296 297 295 294 294 294 295 300 299 297 296 293 295 298 297 297 294 292 289 287 290 294 289 289 288 286 283 284 284 284 284 283 282 282 283
297 301 303 307 305 305 299 301 301 301 298 296 295 293 292 294 294 295 291 290 294 297 295 294 292 291 290 287 285 284 285 288 285 280 283 282 283 283 283 283 282 281 282
297 299 303 305 305 303 300 302 303 303 300 295 292 290 290 289 290 288 288 288 290 292 292 291 288 288 290 287 286 283 284 283 283 283 279 280 282 283 283 283 282 281 281
297 299 302 304 304 300 300 300 303 301 292 291 290 288 288 288 286 286 285 286 287 287 287 287 287 287 286 286 285 285 284 283 282 281 280 280 281 281 283 283 282 281 281
Wind_Speed
6 8 11 11 12 12 14 16 15 15 14 16 16 15 16 16 16 16 16 15 15 16 16 17 18 15 19 20 20 20 20 20 20 20 20 21 21 21 21 21 18 18 22
10 9 11 11 13 12 13 15 14 15 14 16 16 15 16 16 16 16 16 14 14 16 15 17 17 20 20 19 19 19 19 19 18 18 16 18 20 21 21 21 19 17 21
11 10 12 13 13 12 13 13 14 15 14 15 15 14 15 15 16 15 15 14 14 15 16 16 16 18 18 18 18 19 19 19 18 17 16 13 16 20 21 21 21 20 20
11 9 10 12 13 12 12 12 14 15 14 15 14 15 16 16 15 15 15 15 14 15 15 16 17 18 18 18 19 19 19 19 18 16 13 13 15 21 21 21 22 21 20
9 8 9 11 13 12 12 12 12 14 13 15 15 15 15 15 15 15 15 15 15 15 16 17 17 18 18 18 19 19 19 19 17 14 14 13 13 18 22 21 21 22 20
11 10 10 11 12 12 12 12 12 13 15 15 15 15 15 15 15 15 15 16 16 16 17 17 18 19 19 20 20 20 20 19 16 13 12 14 15 20 22 22 22 21 22
10 9 10 10 11 11 11 12 13 13 14 15 15 14 14 14 14 15 15 16 17 17 18 18 19 20 21 21 21 20 19 18 12 12 13 13 15 21 22 22 22 23 23
12 9 9 9 9 10 11 12 12 12 14 15 15 14 13 14 15 15 16 17 18 18 19 19 19 21 22 21 21 21 20 17 13 13 13 13 18 21 20 21 21 21 22
7 10 9 9 8 9 9 9 10 12 13 14 14 12 12 12 14 14 15 17 18 19 19 20 20 21 22 22 21 20 20 18 14 10 12 11 20 21 23 25 25 23 23
6 7 9 8 7 7 8 10 9 10 12 12 11 11 10 12 12 13 11 16 19 19 19 20 21 21 21 21 20 19 18 18 13 12 11 10 20 22 22 23 24 24 24
3 6 6 8 8 8 7 8 11 12 12 12 11 12 10 8 10 12 12 15 19 19 19 19 20 21 21 21 20 19 17 9 12 10 9 20 22 23 23 24 24 23 23
6 5 5 6 4 4 4 6 7 8 9 9 10 10 5 7 8 9 12 15 17 18 20 20 20 18 14 9 9 14 9 12 12 12 9 21 23 24 24 24 24 24 24
6 5 6 4 3 2 1 4 3 3 5 5 8 8 7 6 6 5 5 6 7 10 8 10 10 9 12 9 10 10 11 11 9 9 14 21 24 24 25 25 26 27 28
6 6 5 5 4 3 2 1 3 6 5 5 8 9 7 5 6 5 5 5 5 4 8 9 7 11 13 13 13 13 13 11 9 8 14 22 24 25 25 25 25 25 27
7 7 7 4 5 4 3 2 2 4 6 7 7 9 8 7 6 6 6 5 5 5 7 9 9 10 12 13 12 13 13 13 13 8 8 22 24 25 25 25 25 26 26
6 7 6 6 4 4 5 6 4 3 3 5 6 8 9 7 7 7 7 7 6 6 6 9 8 9 9 9 12 13 13 12 12 12 8 12 24 25 25 26 26 26 26
6 6 8 7 6 6 6 5 4 4 4 3 5 8 10 10 9 9 7 7 8 6 9 9 10 10 9 9 12 11 11 12 11 12 10 9 11 24 25 25 26 25 25
7 9 7 6 7 7 6 5 4 3 3 4 3 7 10 9 11 9 7 7 7 6 7 8 8 9 9 8 10 9 9 10 12 12 10 9 9 9 18 24 25 24 25
10 9 9 8 8 8 6 4 5 4 3 4 4 4 9 10 11 9 7 7 8 7 5 9 8 10 10 10 10 9 8 9 10 10 12 12 12 11 9 20 24 25 24
10 9 7 8 8 8 6 4 3 3 2 2 4 3 7 7 11 10 8 8 7 8 7 8 12 9 10 11 11 10 9 8 8 8 9 9 10 12 12 13 10 12 22
9 10 11 11 10 9 5 5 4 3 2 2 2 4 5 7 8 12 9 9 7 10 11 12 12 15 9 11 10 10 9 9 9 7 6 7 9 10 12 11 8 7 8
13 13 12 13 13 10 7 3 3 4 2 3 2 3 6 6 8 9 12 8 8 9 13 14 14 10 7 6 6 4 5 4 6 5 4 6 8 8 10 11 11 11 9
15 17 15 14 14 11 9 7 5 6 4 2 1 2 3 8 8 9 9 11 9 10 12 13 13 10 9 3 5 3 5 4 6 3 4 4 6 6 7 9 10 10 9
18 13 14 14 14 12 12 10 10 6 6 4 4 3 4 5 7 9 10 9 10 8 12 11 9 6 7 7 3 1 2 5 5 5 3 2 4 6 7 6 7 8 8
12 14 13 14 14 12 13 12 10 8 4 5 6 6 4 3 4 6 8 9 9 7 9 11 8 8 5 6 4 4 2 3 2 4 5 4 3 4 4 4 5 5 7
9 12 14 16 15 14 13 12 13 12 10 8 8 7 4 3 3 4 6 7 7 8 9 8 7 9 7 5 5 5 4 3 3 3 4 3 3 3 3 3 3 4 5
Wind_Direction
178 170 162 158 149 141 127 121 114 107 101 93 87 87 86 86 82 80 77 77 77 75 77 79 78 79 88 82 77 74 72 68 66 63 63 61 58 57 52 43 43 47 46
147 161 156 150 146 139 129 125 122 111 100 92 91 85 85 84 85 83 81 79 78 81 76 79 78 87 87 84 78 74 71 68 66 62 59 62 60 59 57 54 49 45 44
148 153 155 150 142 135 134 134 123 110 108 97 93 90 87 87 85 84 83 79 78 81 83 81 83 86 84 83 78 73 70 66 63 56 51 62 63 61 58 56 55 52 49
148 153 151 139 140 141 134 134 129 123 116 108 101 95 89 86 83 80 78 78 79 81 83 86 87 87 85 82 75 71 69 66 61 56 60 58 63 59 59 56 55 53 51
148 147 146 140 143 141 140 140 136 128 121 113 108 99 95 91 88 83 81 79 80 82 83 83 82 85 82 75 72 70 69 64 56 57 58 58 62 60 58 56 56 53 51
155 153 153 148 150 147 146 145 141 136 128 122 113 107 103 97 91 89 84 82 81 82 84 83 83 81 77 73 71 69 64 59 55 54 58 57 62 63 60 57 57 57 54
157 157 160 158 155 155 154 151 147 140 133 123 118 113 107 99 95 91 89 87 85 85 87 83 81 79 75 72 71 69 65 58 57 54 54 63 65 62 62 59 57 60 57
161 165 163 163 158 157 157 154 149 146 140 130 127 123 111 104 97 95 94 90 88 87 84 84 84 80 77 77 75 72 64 58 56 54 51 55 55 62 62 62 62 59 57
165 165 165 167 167 159 151 152 153 149 143 138 135 126 113 102 95 94 95 92 87 85 85 84 84 84 81 77 75 72 65 58 61 54 56 57 57 55 52 52 52 58 53
159 157 157 163 170 169 162 155 150 148 146 143 135 127 122 108 95 88 80 91 91 90 88 88 88 88 88 85 80 74 64 59 57 56 61 60 62 62 58 54 52 53 51
131 159 161 167 180 184 174 169 160 154 150 143 140 144 135 123 112 103 88 93 95 93 91 92 92 91 89 84 79 73 68 61 58 54 52 54 61 62 61 59 58 56 55
174 173 159 157 171 186 171 175 169 163 162 163 164 156 133 126 119 105 96 90 93 95 96 94 92 87 84 83 75 67 68 66 58 57 49 57 60 60 61 59 58 56 56
173 164 163 133 121 134 221 179 169 169 162 161 153 151 136 124 123 115 109 103 100 97 98 95 91 85 86 86 80 77 74 67 62 55 39 57 61 62 63 61 58 58 57
167 171 166 160 157 174 195 227 185 172 170 163 166 151 147 140 133 126 115 115 108 107 106 100 94 93 87 83 82 80 75 74 70 61 48 56 60 59 59 61 63 63 57
186 182 183 174 177 178 213 201 205 185 180 174 167 160 153 149 143 132 124 118 115 115 112 109 103 97 91 88 83 84 81 80 80 75 60 58 62 62 60 58 57 56 55
190 192 184 198 198 182 200 202 191 205 158 154 162 164 156 150 147 136 133 129 121 126 122 117 110 104 97 93 89 86 85 83 82 81 78 60 64 60 61 60 58 54 51
198 187 193 195 195 200 205 195 172 181 167 167 154 157 155 154 150 144 141 138 135 133 124 111 105 104 101 96 92 88 86 81 78 75 73 73 64 63 64 64 61 59 55
181 190 187 192 191 193 194 184 164 159 160 161 150 158 155 155 152 144 146 140 136 134 132 119 120 110 104 101 97 88 85 82 79 76 75 74 76 72 63 65 62 57 55
193 184 191 190 186 174 163 161 146 146 160 163 139 151 153 155 149 146 147 143 140 127 126 124 114 122 118 108 100 90 84 84 81 80 74 73 72 74 72 64 58 54 52
192 186 181 180 178 164 143 135 105 128 119 142 137 131 149 148 145 137 133 136 148 129 125 120 122 123 121 118 105 89 81 78 78 78 84 84 83 79 73 67 61 51 52
189 183 182 177 178 165 159 163 167 169 154 118 113 128 122 140 147 143 136 135 154 157 142 137 130 132 124 131 114 93 76 73 76 78 85 90 88 83 79 73 69 62 50
188 190 186 189 177 179 173 144 144 144 122 105 124 152 143 125 144 151 151 151 159 153 139 147 148 141 132 185 134 124 143 123 77 68 89 93 93 93 86 76 71 62 54
193 190 189 189 179 178 163 126 106 101 85 108 162 173 156 155 155 148 157 149 168 156 153 158 161 159 155 172 218 154 149 164 146 164 74 97 103 98 96 87 74 64 56
205 188 185 186 179 178 163 163 174 171 159 175 163 150 151 151 151 167 161 149 162 155 154 164 162 153 142 151 141 82 58 134 166 160 183 122 98 100 104 92 80 65 52
184 182 180 186 179 173 178 180 181 176 159 136 136 141 130 118 133 150 140 151 146 153 152 158 158 160 153 152 159 162 119 80 83 143 155 158 142 101 100 102 97 75 52
172 177 179 189 184 175 179 183 189 173 150 146 151 150 158 145 107 120 128 138 141 138 148 153 154 156 157 154 157 153 151 152 160 136 120 135 134 122 131 137 129 99 61